This is the latest recevied weather packets stored in our database for station/object KH6HHG. If no packets are shown the sender has not sent any weather packets the latest 10 day(s).
| Time | Temp. | Humidity | Pressure | Rain* | Wind** | Luminosity | Snow |
|---|---|---|---|---|---|---|---|
| 1777864897 | 22.78° C | 71% | 1012.3 hPa | 0 mm | - | - | - |
| 1777864597 | 22.78° C | 69% | 1012.2 hPa | 0 mm | - | - | - |
| 1777864297 | 22.78° C | 71% | 1012.3 hPa | 0 mm | - | - | - |
| 1777863997 | 22.78° C | 71% | 1012.2 hPa | 0 mm | - | - | - |
| 1777863699 | 22.78° C | 72% | 1012.3 hPa | 0 mm | - | - | - |
| 1777863398 | 22.78° C | 72% | 1012.3 hPa | 0 mm | - | - | - |
| 1777863098 | 22.78° C | 72% | 1012.3 hPa | 0 mm | - | - | - |
| 1777862798 | 22.78° C | 72% | 1012.2 hPa | 0 mm | - | - | - |
| 1777862498 | 22.78° C | 73% | 1012.3 hPa | 0 mm | - | - | - |
| 1777862198 | 22.78° C | 74% | 1012.3 hPa | 0 mm | - | - | - |
| 1777861898 | 22.78° C | 75% | 1012.2 hPa | 0 mm | - | - | - |
| 1777861599 | 22.22° C | 76% | 1012.3 hPa | 0 mm | - | - | - |
| 1777861298 | 22.22° C | 76% | 1012.1 hPa | 0 mm | - | - | - |
| 1777860998 | 22.78° C | 75% | 1012 hPa | 0 mm | - | - | - |
| 1777860698 | 22.78° C | 74% | 1012 hPa | 0 mm | - | - | - |
| 1777860398 | 23.33° C | 71% | 1012 hPa | 0 mm | - | - | - |
| 1777860098 | 23.33° C | 70% | 1012.1 hPa | 0 mm | - | - | - |
| 1777859798 | 23.33° C | 69% | 1011.8 hPa | 0 mm | - | - | - |
| 1777859498 | 23.33° C | 71% | 1011.8 hPa | 0 mm | - | - | - |
| 1777859198 | 23.33° C | 71% | 1011.8 hPa | 0 mm | - | - | - |
| 1777858898 | 23.33° C | 74% | 1011.8 hPa | 0 mm | - | - | - |
| 1777858598 | 23.33° C | 75% | 1011.9 hPa | 0 mm | - | - | - |
| 1777858298 | 23.89° C | 73% | 1011.8 hPa | 0 mm | - | - | - |
| 1777857998 | 23.89° C | 73% | 1011.8 hPa | 0 mm | - | - | - |
| 1777857698 | 23.89° C | 73% | 1011.8 hPa | 0 mm | - | - | - |
* Rain latest hour (hover to see other rain measurements)
** Current wind speed in m/s (hover to see current wind gust speed)